Weather History for Seward, AK

Change the Weather History Date:

Monday, February 17, 2014

  Actual Average Record
Temperature  
Mean Temperature 22 °F -  
Max Temperature 26 °F 32 °F 45 °F (1993)
Min Temperature 19 °F 22 °F -1 °F (1982)
Degree Days  
Heating Degree Days 42    
Moisture  
Dew Point 19 °F    
Average Humidity 83    
Maximum Humidity 96    
Minimum Humidity 66    
Precipitation  
Precipitation 0.00 in - - ()
Sea Level Pressure  
Sea Level Pressure 29.11 in    
Wind  
Wind Speed 7 mph (North)    
Max Wind Speed 16 mph    
Max Gust Speed 24 mph    
Visibility 6 miles    
Events Fog , Snow    
Averages and records for this station are not official NWS values.
T = Trace of Precipitation, MM = Missing Value Source: NWS Daily Summary

Daily Weather History Graph

Daily Weather History Graph

Search for Another Location

Airport:

Trip Planner

Search our weather history database for the weather conditions in past years. The results will help you decide how hot, cold, wet, or windy it might be!

Date:

Astronomy

Feb. 17, 2014 Rise Set
Actual Time 8:29 AM AKST 5:54 PM AKST
Civil Twilight 7:46 AM AKST 6:38 PM AKST
Nautical Twilight 6:57 AM AKST 7:26 PM AKST
Astronomical Twilight 6:09 AM AKST 8:15 PM AKST
Moon 9:57 PM AKST (2/17) 8:44 AM AKST (2/17)
Length of Visible Light 10h 51m
Length of Day
9h 24m
Waning Gibbous, 92% of the Moon is Illuminated
Feb 17
Waning Gibbous
Feb 22
Last Quarter
Feb 28
New
Mar 8
First Quarter
Mar 16
Full

Hourly Weather History & Observations

Time (AKST) Temp. Windchill Dew Point Humidity Pressure Visibility Wind Dir Wind Speed Gust Speed Precip Events Conditions
12:53 AM 21.0 °F 13.4 °F 18.0 °F 88% 29.04 in 10.0 mi NNW 5.8 mph - N/A   Overcast
1:53 AM 23.0 °F 14.7 °F 19.0 °F 85% 29.03 in 10.0 mi North 6.9 mph - 0.00 in   Overcast
3:53 AM 24.1 °F 11.5 °F 18.0 °F 77% 29.01 in 10.0 mi North 15.0 mph 23.0 mph N/A   Overcast
4:53 AM 21.9 °F 11.0 °F 18.0 °F 85% 29.01 in 10.0 mi North 10.4 mph 20.7 mph 0.00 in   Overcast
5:53 AM 23.0 °F 9.6 °F 17.1 °F 78% 29.01 in 10.0 mi North 16.1 mph 19.6 mph N/A   Overcast
6:53 AM 23.0 °F 10.1 °F 17.1 °F 78% 29.00 in 10.0 mi North 15.0 mph 24.2 mph N/A   Mostly Cloudy
7:53 AM 21.9 °F 10.4 °F 16.0 °F 78% 29.00 in 10.0 mi NNE 11.5 mph 20.7 mph N/A   Overcast
8:53 AM 21.9 °F 10.4 °F 16.0 °F 78% 29.01 in 10.0 mi NNE 11.5 mph 18.4 mph N/A   Overcast
9:53 AM 23.0 °F 12.4 °F 16.0 °F 74% 29.01 in 10.0 mi NNE 10.4 mph 19.6 mph N/A   Clear
10:53 AM 24.1 °F 12.0 °F 17.1 °F 75% 29.03 in 10.0 mi North 13.8 mph 18.4 mph N/A   Partly Cloudy
11:53 AM 25.0 °F 14.8 °F 16.0 °F 69% 29.04 in 10.0 mi NNE 10.4 mph - N/A   Clear
12:53 PM 25.0 °F 16.3 °F 15.1 °F 66% 29.05 in 10.0 mi North 8.1 mph - N/A   Scattered Clouds
1:53 PM 26.1 °F 20.5 °F 17.1 °F 69% 29.07 in 10.0 mi North 4.6 mph - N/A   Overcast
2:53 PM 26.1 °F - 18.0 °F 71% 29.08 in 9.0 mi Calm Calm - N/A   Overcast
2:58 PM 26.6 °F - 17.6 °F 69% 29.08 in 5.0 mi Calm Calm - 0.00 in Snow Light Snow
3:16 PM 26.6 °F 21.2 °F 17.6 °F 69% 29.08 in 9.0 mi NNE 4.6 mph - 0.00 in   Scattered Clouds
3:53 PM 25.0 °F 19.3 °F 18.0 °F 75% 29.09 in 10.0 mi North 4.6 mph - 0.00 in   Mostly Cloudy
4:24 PM 24.8 °F - 17.6 °F 74% 29.10 in 5.0 mi Calm Calm - 0.00 in Snow Light Snow
4:26 PM 24.8 °F - 17.6 °F 74% 29.10 in 1.5 mi Calm Calm - 0.00 in Snow Light Snow
4:28 PM 24.8 °F - 17.6 °F 74% 29.10 in 0.8 mi Calm Calm - 0.00 in Snow Light Snow
4:50 PM 24.8 °F 19.1 °F 21.2 °F 86% 29.10 in 0.5 mi NW 4.6 mph - 0.00 in Fog , Snow Snow
4:53 PM 25.0 °F 20.7 °F 23.0 °F 92% 29.11 in 0.5 mi NNW 3.5 mph - 0.00 in Fog , Snow Snow
5:05 PM 24.8 °F 20.5 °F 21.2 °F 86% 29.10 in 1.0 mi NNW 3.5 mph - 0.00 in Snow Light Snow
5:08 PM 24.8 °F - 21.2 °F 86% 29.11 in 1.8 mi Calm Calm - 0.00 in Snow Light Snow
5:10 PM 24.8 °F 20.5 °F 23.0 °F 93% 29.11 in 2.5 mi North 3.5 mph - 0.00 in Snow Light Snow
5:18 PM 24.8 °F 19.1 °F 23.0 °F 93% 29.11 in 6.0 mi North 4.6 mph - 0.00 in Snow Light Snow
5:47 PM 24.8 °F - 23.0 °F 93% 29.13 in 1.5 mi Calm Calm - 0.00 in Snow Light Snow
5:50 PM 24.8 °F - 23.0 °F 93% 29.13 in 0.8 mi Calm Calm - 0.00 in Snow Light Snow
5:53 PM 26.1 °F - 23.0 °F 88% 29.14 in 0.5 mi Calm Calm - 0.00 in Fog , Snow Snow
6:08 PM 24.8 °F 20.5 °F 23.0 °F 93% 29.14 in 0.5 mi NNE 3.5 mph - 0.00 in Fog , Snow Snow
6:17 PM 24.8 °F 20.5 °F 23.0 °F 93% 29.14 in 1.2 mi NNE 3.5 mph - 0.00 in Snow Light Snow
6:21 PM 24.8 °F 19.1 °F 21.2 °F 86% 29.15 in 2.0 mi NNE 4.6 mph - 0.00 in Snow Light Snow
6:30 PM 24.8 °F 19.1 °F 21.2 °F 86% 29.15 in 6.0 mi NNE 4.6 mph - 0.00 in Snow Light Snow
6:32 PM 24.8 °F 19.1 °F 21.2 °F 86% 29.15 in 7.0 mi NNE 4.6 mph - 0.00 in Snow Light Snow
6:53 PM 24.1 °F 19.7 °F 21.9 °F 91% 29.16 in 9.0 mi NW 3.5 mph - 0.00 in   Overcast
7:17 PM 24.8 °F 20.5 °F 21.2 °F 86% 29.17 in 2.5 mi NW 3.5 mph - 0.00 in Snow Light Snow
7:19 PM 24.8 °F 20.5 °F 23.0 °F 93% 29.17 in 1.8 mi NW 3.5 mph - 0.00 in Snow Light Snow
7:31 PM 24.8 °F 20.5 °F 21.2 °F 86% 29.17 in 3.0 mi NW 3.5 mph - 0.00 in Snow Light Snow
7:51 PM 21.2 °F 14.9 °F 19.4 °F 93% 29.17 in 9.0 mi NNW 4.6 mph - 0.00 in   Overcast
7:53 PM 21.9 °F 15.7 °F 21.0 °F 96% 29.18 in 10.0 mi North 4.6 mph - 0.00 in   Overcast
8:53 PM 21.9 °F - 19.9 °F 92% 29.21 in 1.8 mi Calm Calm - 0.00 in Snow Light Snow
9:17 PM 21.2 °F 14.9 °F 19.4 °F 93% 29.20 in 3.0 mi NE 4.6 mph - 0.00 in Snow Light Snow
9:34 PM 19.4 °F 10.4 °F 17.6 °F 93% 29.20 in 10.0 mi NNW 6.9 mph - 0.00 in   Mostly Cloudy
9:53 PM 19.9 °F 12.1 °F 17.1 °F 89% 29.21 in 10.0 mi North 5.8 mph - 0.00 in   Mostly Cloudy
10:53 PM 21.0 °F 13.4 °F 18.0 °F 88% 29.21 in 10.0 mi North 5.8 mph - N/A   Overcast
11:53 PM 23.0 °F 10.6 °F 17.1 °F 78% 29.19 in 10.0 mi North 13.8 mph 19.6 mph N/A   Overcast